Location: Eastport
(37.8396°N, 122.1805°W)
Time: 04:42:47
(UTC+00:00)

Daily predictions for brighter satellites

Satellite Brightness Start Highest point End
(mag) Time Altitude Azimuth Time Altitude Azimuth Time Altitude Azimuth
Cosmos 2297 4.0 02:48:10 10° NNW 02:53:43 52° ENE 02:59:15 10° SE
USA 186 3.7 02:53:30 10° ESE 02:55:31 15° ENE 02:57:31 10° NNE
Cosmos 1470 3.4 02:52:17 10° SSE 02:55:45 33° E 02:59:15 10° NNE
ATLAS 3B CENTAUR R/B 4.5 02:50:03 10° W 02:56:22 18° SW 03:00:21 10° S
Okean 1-7 Rocket 3.5 02:52:49 10° N 02:57:13 74° E 03:01:35 10° SSE
Cosmos 1626 2.7 02:54:42 10° N 02:58:10 37° E 03:01:37 10° SSE
STARLINK-1071 3.6 02:54:26 10° NW 02:58:35 73° NE 03:02:42 10° SE
Cosmos 1302 Rocket 4.4 02:55:10 10° N 03:00:13 45° ENE 03:05:16 10° SE
Cosmos 2278 Rocket 3.9 02:55:24 10° NW 03:00:34 37° WSW 03:05:43 10° S
H-2A R/B 2.9 02:58:12 10° SE 03:02:50 32° ENE 03:07:23 10° N
STARLINK-1110 3.6 02:59:25 10° NW 03:03:34 81° NE 03:07:42 10° SE
USA 234 3.9 02:59:01 10° ENE 03:04:51 34° SE 03:10:41 10° S
Cosmos 1709 Rocket 4.1 03:01:04 10° N 03:07:05 53° E 03:13:02 10° SSE
CZ-3B R/B 4.3 03:02:45 10° SW 03:08:12 81° SE 03:38:40 10° NE
STARLINK-1124 3.6 03:04:23 10° NW 03:08:31 89° NNE 03:12:40 10° SE
SEDSat Delta rocket 4.1 03:05:48 10° WSW 03:10:19 34° S 03:14:08 11° ESE
STARLINK-1122 3.7 03:09:20 10° NW 03:13:29 83° SW 03:17:37 10° SE
Cosmos 304 Rocket 4.5 03:13:28 10° NNW 03:18:09 56° WSW 03:22:48 10° S
STARLINK-1126 3.8 03:14:20 10° NW 03:18:28 75° SW 03:22:36 10° SE
SJ-6B 3.9 03:17:16 10° SE 03:20:44 27° ENE 03:24:13 10° NNE
Cosmos 2251 Rocket 3.7 03:16:26 10° S 03:21:33 49° ESE 03:26:43 10° NNE
FREGAT/IRIS 3.3 03:21:09 14° SE 03:23:02 29° ENE 03:25:28 10° NNE
STARLINK-1082 3.9 03:19:20 10° NW 03:23:26 68° SW 03:27:27 11° SE
Cosmos 2369 Rocket 3.2 03:20:19 10° N 03:25:15 29° ENE 03:28:58 15° ESE
Aureole 3 3.9 03:23:03 10° SSE 03:26:57 47° E 03:31:54 10° NNE
GEOS 3 Rocket 4.1 03:22:33 10° SSE 03:27:35 62° WSW 03:32:44 10° NW
ARGOS Delta rocket 4.0 03:22:36 10° SSE 03:27:42 74° ENE 03:33:05 10° N
STARLINK-1100 4.0 03:24:20 10° NW 03:28:25 61° SW 03:32:14 12° SE
Meteor 1-24 Rocket 4.2 03:23:45 10° NNW 03:29:05 59° W 03:34:17 10° S
Cosmos 1758 3.3 03:25:46 10° S 03:29:51 85° E 03:33:58 10° N
SL-14 R/B 3.6 03:27:08 10° NNW 03:31:10 72° W 03:35:08 10° S
Cosmos 2084 Rocket 4.2 03:27:54 10° NNW 03:32:04 37° NE 03:34:45 19° ESE
HJ-1C 4.0 03:29:39 10° S 03:32:57 59° W 03:36:17 10° NNW
STARLINK-1083 4.2 03:29:19 10° WNW 03:33:22 55° SW 03:37:00 12° SSE
CZ-4 R/B 4.2 03:30:52 10° SW 03:33:40 19° W 03:36:30 10° NW
Cosmos 1943 Rocket 2.5 03:28:35 10° N 03:33:54 45° ENE 03:38:02 16° SE
ISS -2.0 03:33:11 10° NNW 03:35:52 21° NNE 03:37:24 16° ENE
STARLINK-1125 4.4 03:34:18 10° WNW 03:38:18 49° SW 03:41:45 13° SSE
Aureole 2 Rocket 3.3 03:37:14 10° N 03:40:22 30° ENE 03:41:17 26° E
STARLINK-1098 4.4 03:36:42 10° NW 03:40:35 37° NE 03:42:38 22° E
Cosmos 292 Rocket 4.1 03:39:39 10° N 03:44:16 45° ENE 03:47:01 22° SE
ATLAS 5 CENTAUR R/B 4.2 03:39:47 10° S 03:44:30 19° SE 03:48:07 17° ESE
Cosmos 1943 3.3 03:39:28 10° S 03:44:54 52° ESE 03:50:24 10° NNE
STARLINK-1123 4.3 03:41:39 10° NW 03:45:35 40° NE 03:47:25 25° E
SL-4 R/B 1.9 03:42:44 10° SSW 03:45:55 39° SE 03:46:50 32° E
STARLINK-1097 4.2 03:46:35 10° NW 03:50:34 44° NE 03:52:11 29° E
Ariane Rocket 3.2 03:46:26 10° S 03:51:29 74° WSW 03:56:34 10° NNW
IRIDIUM 114 4.3 03:48:06 10° N 03:53:16 60° E 03:58:17 11° SSE
STARLINK-1099 4.0 03:51:33 10° NW 03:55:34 48° NE 03:56:59 33° E
Resurs 01 Rocket 2.7 03:56:53 25° ENE 03:57:08 25° ENE 04:00:43 10° NNE
Cosmos 1726 2.0 03:56:21 10° S 04:00:03 68° E 04:03:47 10° NNE
STARLINK-1104 3.9 03:56:31 10° NW 04:00:35 52° NE 04:01:47 38° E
IRIDIUM 103 4.2 03:57:13 10° N 04:02:27 75° E 04:07:26 11° S
MOS 1 4.3 03:56:50 10° SSE 04:02:29 82° WSW 04:08:10 10° NNW
SPOT 3 Rocket 3.6 04:00:59 25° SE 04:03:54 58° ENE 04:09:01 10° N
STARLINK-1144 3.8 04:01:27 10° NW 04:05:33 58° NE 04:06:33 44° E
CZ-2C R/B 3.6 04:01:45 10° NNE 04:06:30 83° ESE 04:11:07 10° SSW
Cosmos 1953 2.7 04:04:02 10° SSW 04:07:56 62° W 04:11:53 10° N
STARLINK-1103 3.7 04:06:25 10° NW 04:10:33 64° NE 04:11:20 51° E
Cosmos 1703 4.2 04:10:04 10° N 04:12:58 33° NE 04:12:58 33° NE
STARLINK-1101 3.5 04:11:23 10° NW 04:15:32 70° NE 04:16:07 59° E
CZ-2C R/B 3.6 04:11:24 10° S 04:16:21 55° W 04:21:06 10° NNW
Cosmos 2184 Rocket 3.9 04:11:17 10° N 04:17:35 74° E 04:21:28 24° SSE
Meteor 1-21 Rocket 4.3 04:12:52 10° NNW 04:18:24 77° W 04:22:53 16° S
STARLINK-1102 3.4 04:16:23 10° NW 04:20:32 78° NE 04:20:56 69° E
IRIDIUM 106 4.5 04:15:30 10° N 04:20:43 74° W 04:25:37 12° S
Cosmos 1818 3.5 04:15:39 10° SSW 04:21:04 88° ESE 04:26:33 10° NNE
SL-08 RB Rocket 3.9 04:19:48 25° S 04:22:24 69° WSW 04:26:58 10° NNW
CZ-2C R/B 2.4 04:18:57 10° NNE 04:24:07 71° ESE 04:27:49 19° S
Cosmos 1726 Rocket 3.4 04:24:33 64° SE 04:24:58 69° E 04:29:23 10° NNE
ARGOS 3.9 04:20:03 10° S 04:25:17 52° W 04:30:33 10° NNW
STARLINK-1111 3.4 04:21:20 10° NW 04:25:30 86° NE 04:25:41 80° ESE
USA 186 4.0 04:23:30 11° SSW 04:26:16 25° W 04:29:08 10° NW
Cosmos 1656 Rocket 4.0 04:21:40 10° N 04:27:04 43° ENE 04:27:37 42° ENE
Cosmos 1603 4.5 04:22:22 10° SW 04:27:52 53° WNW 04:33:21 10° NNE
MetOp-A 4.0 04:26:20 34° SSE 04:28:45 89° WSW 04:34:08 10° NNW
Cosmos 407 Rocket 3.7 04:30:48 47° ENE 04:30:48 47° ENE 04:34:56 10° NNE
STARLINK-1073 3.5 04:26:18 10° NW 04:30:28 86° SW 04:30:28 86° SW
MOS 1 Rocket 3.5 04:26:27 10° NNE 04:31:50 88° ESE 04:36:56 12° SSW
Cosmos 614 Rocket 3.8 04:29:03 25° S 04:32:04 69° ESE 04:37:16 10° NNE
Meteor 1-16 Rocket 4.4 04:28:10 10° SSW 04:33:28 67° W 04:38:55 10° N
Cosmos 1825 Rocket 3.5 04:30:41 10° N 04:35:06 81° W 04:35:35 69° SSW
STARLINK-1121 3.6 04:31:17 10° NW 04:35:15 76° WSW 04:35:15 76° WSW
Cosmos 1908 3.9 04:37:04 48° N 04:37:04 48° N 04:39:56 10° N
Cosmos 2154 Rocket 3.9 04:33:00 10° N 04:39:21 70° E 04:40:52 52° SE
Cosmos 1992 Rocket 4.4 04:34:44 10° NNW 04:39:50 57° WSW 04:41:49 35° SSW
STARLINK-1106 3.9 04:36:16 10° NW 04:40:02 65° W 04:40:02 65° W
H-2A R/B 3.9 04:37:39 10° SSW 04:42:11 28° W 04:46:39 10° NW
BREEZE-M DEB (TANK) 4.5 04:39:37 10° WNW 04:42:18 16° NNW 04:43:23 13° N
Nadezhda 1 Rocket 4.0 04:36:23 10° S 04:42:48 85° W 04:49:13 10° N
STARLINK-1112 4.1 04:41:15 10° NW 04:44:48 56° W 04:44:48 56° W
Cosmos 1758 Rocket 4.4 04:42:19 10° NNW 04:46:29 47° W 04:47:26 40° SW
USA 234 3.6 04:41:36 10° NE 04:48:02 62° NW 04:54:27 10° WSW
ATLAS 2AS CENTAUR R/B 3.2 04:40:58 10° NNW 04:48:09 45° NE 04:49:13 43° ENE
STARLINK-1128 4.4 04:46:17 10° NW 04:49:37 48° W 04:49:37 48° W
Cosmos 1953 Rocket 3.9 04:49:12 10° N 04:53:05 64° NW 04:53:05 64° NW
Cosmos 2228 4.5 04:59:59 25° WSW 05:01:38 35° WNW 05:05:36 10° NNW
Cosmos 2369 Rocket 3.4 05:04:08 10° NW 05:09:18 37° WSW 05:10:47 31° SW
ISS -0.7 05:09:36 10° WNW 05:10:23 16° WNW 05:10:23 16° WNW
Meteor 1-11 4.4 05:07:41 10° NNW 05:13:25 70° W 05:13:27 69° W
Cosmos 1943 Rocket 4.1 05:13:05 10° NW 05:17:17 22° W 05:19:37 17° SW
Resurs 01 Rocket 3.7 05:34:26 24° WNW 05:34:26 24° WNW 05:37:13 10° NW
COSMOS 2455 4.2 05:59:42 10° NNW 06:03:05 35° NNW 06:03:05 35° NNW
NOSS 3-4 (A) 4.3 05:59:35 10° NW 06:05:18 57° WNW 06:05:18 57° WNW
NOSS 3-4 (C) 4.3 05:59:41 10° NW 06:05:25 57° WNW 06:05:25 57° WNW
ATLAS 2AS CENTAUR R/B 4.2 06:32:22 10° NW 06:36:40 30° WNW 06:36:40 30° WNW
CZ-4C R/B 4.5 07:12:14 10° NNW 07:16:12 27° NNE 07:16:12 27° NNE
SL-16 R/B 4.3 10:11:30 22° NNW 10:11:30 22° NNW 10:13:34 10° NNW
ADEOS II 4.2 10:03:35 10° NNE 10:05:45 23° NE 10:05:45 23° NE
Resurs 1-4 Rocket 4.4 10:05:52 10° N 10:07:18 19° N 10:07:18 19° N
Cosmos 2297 Rocket 4.3 10:18:31 19° E 10:18:31 19° E 10:21:55 10° NE
CZ-2D R/B 4.2 10:16:10 10° N 10:18:02 21° N 10:18:02 21° N
Cosmos 2227 Rocket 3.7 10:43:28 28° ESE 10:43:34 28° ESE 10:48:18 10° NE
Cosmos 2219 Rocket 4.0 10:38:16 10° NNW 10:40:08 22° NNW 10:40:08 22° NNW
COSMOS 2428 4.3 10:39:56 10° NNW 10:42:23 26° NNW 10:42:23 26° NNW
USA 267 3.5 10:56:36 10° NE 11:02:56 54° NW 11:03:03 54° NW
BREEZE-M DEB (TANK) 4.1 11:03:27 10° NW 11:09:27 40° NNE 11:13:08 10° E
ARIANE 5 R/B 3.3 11:04:30 10° N 11:08:10 46° N 11:08:10 46° N
CZ-2C R/B 4.5 11:11:08 10° NNE 11:13:32 33° NE 11:13:32 33° NE
CZ-4B R/B 4.2 11:14:25 16° E 11:15:35 18° ENE 11:18:04 10° NNE
SJ 16-02 3.9 11:20:05 13° NNW 11:20:05 13° NNW 11:20:41 10° NNW
USA 238 DEB 3.7 11:17:34 57° SSE 11:18:42 67° ESE 11:25:27 10° NE
USA 238 3.8 11:17:37 56° SSE 11:18:48 66° ESE 11:25:34 10° NE
COBE Rocket 4.5 11:23:53 31° SE 11:25:55 54° ENE 11:30:34 10° N
Cosmos 2333 Rocket 4.4 11:20:59 10° NW 11:21:31 13° NW 11:21:31 13° NW
Cosmos 1743 4.4 11:22:51 10° N 11:24:56 29° NNE 11:24:56 29° NNE
STARLINK-1024 4.5 11:30:38 47° ENE 11:30:38 47° ENE 11:33:47 10° NE
H-2A R/B 4.4 11:33:22 13° NNW 11:33:22 13° NNW 11:33:51 10° NNW
Okean 1-7 3.5 11:31:06 56° NNE 11:31:06 56° NNE 11:34:36 10° N
Meteor 1-18 Rocket 4.4 11:31:54 46° S 11:33:40 75° E 11:39:27 10° NNE
STARLINK-1035 4.2 11:35:25 55° ENE 11:35:25 55° ENE 11:38:46 10° NE
USA 234 3.9 11:28:34 10° ESE 11:34:54 55° NE 11:41:15 10° NW
STARLINK-1032 4.0 11:40:12 63° ENE 11:40:12 63° ENE 11:43:46 10° NE
Cosmos 2237 Rocket 2.2 11:38:43 10° NNW 11:44:25 81° ENE 11:50:06 10° SSE
STARLINK-1011 3.7 11:44:58 73° ENE 11:44:58 73° ENE 11:48:44 10° NE
NOSS 3-2 (A) 3.2 11:44:36 58° SW 11:45:48 84° WNW 11:52:07 10° NNE
ADEOS II 3.7 11:43:59 10° NNW 11:46:43 20° NW 11:46:43 20° NW
deb Chang Zheng 4 3.4 11:45:12 10° N 11:49:31 79° WNW 11:49:31 79° WNW
STARLINK-1036 3.6 11:49:45 80° NNE 11:49:45 80° NNE 11:53:43 10° NE
GENESIS II 4.2 11:52:42 76° SE 11:52:50 78° ESE 11:56:55 10° NE
Sich 1 Rocket 4.0 11:48:53 10° N 11:53:14 61° E 11:57:33 10° SSE
Meteor 2-4 Rocket 4.5 11:47:33 10° S 11:53:19 56° E 11:59:05 10° NNE
STARLINK-1044 3.5 11:54:32 77° NW 11:54:32 77° NW 11:58:41 10° NE
